When you browse on this site, cookies collect data to enhance your experience and personalize the content and advertising you see.
Visit our Privacy Policy to learn more. By continuing to use the site, you agree to this use of cookies and data.

Hourly Weather Pirogovo-Zykovo

Today, 9 July, Thursday

Time Temperature Precipitation Wind Pressure Humidity
00:00 +14°C° 0.8 mm 5 mps 735 mmHg 95%
01:00 +14°C° 0.8 mm 5 mps 736 mmHg 95%
02:00 +13°C° 0.8 mm 5 mps 736 mmHg 95%
03:00 +13°C° 0.8 mm 5 mps 736 mmHg 95%
04:00 +13°C° 0.8 mm 5 mps 736 mmHg 95%
05:00 +11°C° 0.8 mm 6 mps 737 mmHg 94%
06:00 +13°C° 0 mm 5 mps 737 mmHg 91%
07:00 +14°C° 0 mm 5 mps 738 mmHg 87%
08:00 +15°C° 0 mm 5 mps 738 mmHg 84%
09:00 +16°C° 0 mm 5 mps 738 mmHg 79%
10:00 +19°C° 0 mm 5 mps 739 mmHg 75%
11:00 +20°C° 0 mm 5 mps 739 mmHg 71%
12:00 +20°C° 0 mm 4 mps 739 mmHg 69%
13:00 +21°C° 0 mm 4 mps 739 mmHg 67%
14:00 +21°C° 0 mm 3 mps 740 mmHg 65%
15:00 +21°C° 0.2 mm 3 mps 740 mmHg 69%
16:00 +20°C° 0.2 mm 4 mps 740 mmHg 72%
17:00 +19°C° 0.2 mm 4 mps 740 mmHg 76%
18:00 +18°C° 0.1 mm 3 mps 740 mmHg 80%
19:00 +16°C° 0.1 mm 3 mps 740 mmHg 84%
20:00 +15°C° 0.1 mm 2 mps 740 mmHg 88%
21:00 +13°C° 0 mm 3 mps 741 mmHg 90%
22:00 +13°C° 0 mm 3 mps 741 mmHg 92%
23:00 +12°C° 0 mm 3 mps 741 mmHg 93%

Tomorrow, 10 July, Friday

Time Temperature Precipitation Wind Pressure Humidity
00:00 +12°C° 0 mm 3 mps 742 mmHg 94%
01:00 +11°C° 0 mm 3 mps 742 mmHg 94%
02:00 +11°C° 0 mm 3 mps 742 mmHg 94%
03:00 +11°C° 0 mm 3 mps 742 mmHg 93%
04:00 +11°C° 0 mm 3 mps 743 mmHg 92%
05:00 +11°C° 0 mm 3 mps 743 mmHg 91%
06:00 +13°C° 0 mm 3 mps 743 mmHg 86%
07:00 +14°C° 0 mm 3 mps 744 mmHg 80%
08:00 +17°C° 0 mm 3 mps 744 mmHg 75%
09:00 +18°C° 0 mm 2 mps 744 mmHg 69%
10:00 +19°C° 0 mm 2 mps 744 mmHg 64%
11:00 +20°C° 0 mm 2 mps 744 mmHg 59%
12:00 +20°C° 0 mm 2 mps 744 mmHg 58%
13:00 +20°C° 0 mm 3 mps 744 mmHg 57%
14:00 +21°C° 0 mm 3 mps 744 mmHg 56%
15:00 +21°C° 0 mm 2 mps 744 mmHg 59%
16:00 +21°C° 0 mm 2 mps 744 mmHg 61%
17:00 +21°C° 0 mm 2 mps 744 mmHg 64%
18:00 +19°C° 0 mm 2 mps 745 mmHg 69%
19:00 +18°C° 0 mm 2 mps 745 mmHg 74%
20:00 +16°C° 0 mm 2 mps 745 mmHg 79%
21:00 +16°C° 0 mm 2 mps 745 mmHg 81%
22:00 +15°C° 0 mm 2 mps 745 mmHg 83%
23:00 +15°C° 0 mm 2 mps 745 mmHg 85%

Day after tomorrow, 11 July, Saturday

Time Temperature Precipitation Wind Pressure Humidity
00:00 +14°C° 0 mm 2 mps 745 mmHg 86%
01:00 +14°C° 0 mm 2 mps 745 mmHg 87%
02:00 +13°C° 0 mm 3 mps 745 mmHg 87%
03:00 +13°C° 0 mm 3 mps 745 mmHg 87%
04:00 +14°C° 0 mm 3 mps 746 mmHg 87%
05:00 +14°C° 0 mm 3 mps 746 mmHg 87%
06:00 +17°C° 0 mm 3 mps 746 mmHg 83%
07:00 +18°C° 0 mm 3 mps 746 mmHg 80%
08:00 +20°C° 0 mm 3 mps 746 mmHg 76%
09:00 +21°C° 0 mm 4 mps 746 mmHg 73%
10:00 +22°C° 0 mm 4 mps 746 mmHg 71%
11:00 +23°C° 0 mm 4 mps 746 mmHg 68%
12:00 +25°C° 0 mm 4 mps 745 mmHg 68%
13:00 +25°C° 0 mm 4 mps 745 mmHg 67%
14:00 +25°C° 0 mm 4 mps 745 mmHg 67%
15:00 +25°C° 0 mm 4 mps 745 mmHg 69%
16:00 +25°C° 0 mm 3 mps 745 mmHg 72%
17:00 +25°C° 0 mm 3 mps 744 mmHg 74%
18:00 +22°C° 0 mm 3 mps 744 mmHg 78%
19:00 +21°C° 0 mm 2 mps 744 mmHg 81%
20:00 +19°C° 0 mm 2 mps 744 mmHg 85%
21:00 +19°C° 0 mm 2 mps 744 mmHg 85%
22:00 +18°C° 0 mm 2 mps 744 mmHg 86%
23:00 +17°C° 0 mm 2 mps 744 mmHg 87%

12 July, Sunday

Time Temperature Precipitation Wind Pressure Humidity
00:00 +17°C° 0 mm 2 mps 744 mmHg 87%
01:00 +17°C° 0 mm 2 mps 744 mmHg 88%
02:00 +16°C° 0 mm 2 mps 744 mmHg 88%
03:00 +17°C° 0 mm 2 mps 744 mmHg 88%
04:00 +17°C° 0 mm 2 mps 744 mmHg 87%
05:00 +17°C° 0 mm 2 mps 744 mmHg 87%
06:00 +19°C° 0 mm 2 mps 744 mmHg 82%
07:00 +21°C° 0 mm 2 mps 744 mmHg 77%
08:00 +23°C° 0 mm 2 mps 744 mmHg 72%
09:00 +24°C° 0 mm 2 mps 744 mmHg 68%
10:00 +25°C° 0 mm 2 mps 743 mmHg 65%
11:00 +26°C° 0 mm 1 mps 743 mmHg 61%
12:00 +26°C° 0 mm 2 mps 743 mmHg 60%
13:00 +27°C° 0 mm 2 mps 743 mmHg 59%
14:00 +27°C° 0 mm 2 mps 742 mmHg 58%
15:00 +27°C° 0 mm 2 mps 742 mmHg 62%
16:00 +27°C° 0 mm 2 mps 742 mmHg 65%
17:00 +27°C° 0 mm 2 mps 741 mmHg 68%
18:00 +25°C° 0 mm 2 mps 741 mmHg 72%
19:00 +23°C° 0 mm 2 mps 741 mmHg 76%
20:00 +20°C° 0 mm 2 mps 740 mmHg 80%
21:00 +20°C° 0 mm 2 mps 740 mmHg 81%
22:00 +19°C° 0 mm 2 mps 740 mmHg 81%
23:00 +19°C° 0 mm 2 mps 740 mmHg 82%

13 July, Monday

Time Temperature Precipitation Wind Pressure Humidity
00:00 +18°C° 0.2 mm 2 mps 739 mmHg 84%
01:00 +18°C° 0.2 mm 2 mps 739 mmHg 86%
02:00 +18°C° 0.2 mm 2 mps 738 mmHg 87%
03:00 +18°C° 0.3 mm 3 mps 738 mmHg 89%
04:00 +18°C° 0.3 mm 3 mps 737 mmHg 91%
05:00 +18°C° 0.3 mm 3 mps 737 mmHg 93%
06:00 +20°C° 0.6 mm 3 mps 737 mmHg 92%
07:00 +21°C° 0.6 mm 3 mps 736 mmHg 92%
08:00 +22°C° 0.6 mm 3 mps 736 mmHg 91%
09:00 +23°C° 0.3 mm 4 mps 736 mmHg 90%
10:00 +23°C° 0.3 mm 4 mps 736 mmHg 88%
11:00 +23°C° 0.3 mm 4 mps 736 mmHg 87%
12:00 +23°C° 0.8 mm 4 mps 735 mmHg 88%
13:00 +22°C° 0.8 mm 4 mps 735 mmHg 89%
14:00 +22°C° 0.8 mm 3 mps 734 mmHg 90%
15:00 +21°C° 0.5 mm 3 mps 734 mmHg 90%
16:00 +21°C° 0.5 mm 3 mps 733 mmHg 90%
17:00 +21°C° 0.5 mm 2 mps 733 mmHg 90%
18:00 +21°C° 0.5 mm 2 mps 733 mmHg 90%
19:00 +20°C° 0.5 mm 2 mps 733 mmHg 90%
20:00 +20°C° 0.5 mm 2 mps 733 mmHg 90%
21:00 +20°C° 0.2 mm 2 mps 732 mmHg 91%
22:00 +19°C° 0.2 mm 2 mps 732 mmHg 93%
23:00 +19°C° 0.2 mm 2 mps 732 mmHg 94%

14 July, Tuesday

Time Temperature Precipitation Wind Pressure Humidity
00:00 +19°C° 0.9 mm 2 mps 732 mmHg 95%
01:00 +18°C° 0.9 mm 3 mps 732 mmHg 96%
02:00 +18°C° 0.9 mm 3 mps 732 mmHg 97%
03:00 +18°C° 0.3 mm 4 mps 732 mmHg 97%
04:00 +17°C° 0.3 mm 4 mps 733 mmHg 96%
05:00 +15°C° 0.3 mm 5 mps 733 mmHg 95%
06:00 +15°C° 0 mm 5 mps 733 mmHg 94%
07:00 +15°C° 0 mm 5 mps 733 mmHg 93%
08:00 +15°C° 0 mm 4 mps 734 mmHg 92%
09:00 +16°C° 0 mm 5 mps 734 mmHg 90%
10:00 +16°C° 0 mm 5 mps 734 mmHg 88%
11:00 +16°C° 0 mm 5 mps 735 mmHg 86%
12:00 +16°C° 0.1 mm 5 mps 735 mmHg 85%
13:00 +16°C° 0.1 mm 5 mps 735 mmHg 84%
14:00 +16°C° 0.1 mm 5 mps 735 mmHg 83%
15:00 +16°C° 0.1 mm 5 mps 735 mmHg 83%
16:00 +16°C° 0.1 mm 5 mps 736 mmHg 83%
17:00 +16°C° 0.1 mm 5 mps 736 mmHg 83%
18:00 +15°C° 0 mm 5 mps 736 mmHg 85%
19:00 +14°C° 0 mm 5 mps 736 mmHg 86%
20:00 +14°C° 0 mm 5 mps 736 mmHg 88%
21:00 +14°C° 0 mm 4 mps 736 mmHg 89%
22:00 +13°C° 0 mm 4 mps 736 mmHg 90%
23:00 +13°C° 0 mm 4 mps 736 mmHg 91%
Show more